COSMOS 1275 DEB, 39968

Orbit data source: Space-Track

COSMOS 1275 DEB, 39968 is space debris in LEO originally from a launch on Thu, 04 Jun 1981 UTC launched from the Plesetsk Missile And Space Complex (PKMTR). Debris objects in space refer to the collection of defunct objects orbiting the Earth. Examples of debris include non-operational satellites, rocket bodies, and fragments generated from explosions, collisions, or faulty payload assembly.

Loading next visibility...
Identifier
39968, 1981-053PE
Orbit
LEO
Country
Flag of CISCIS
Related business
Manufacturer
Unknown
Mission
Spacecraft
Bus & Motor
Unknown
Mass
Unknown
Launch date (UTC)
1981-06-04 (45 years ago)
Launch vehicle
Unknown
Launch site
Plesetsk Missile And Space Complex (PKMTR)
Object type
Payload
Rocket body
Debris
Shape & HBR
Unknown shape, 0.1 m
Radar Cross Section
Medium (>0.1 m² and <1 m²)

Expand to show TLE details & history
Last TLE update: 1 day ago

TLE from 1 day ago
0 COSMOS 1275 DEB
1 39968U 81053PE  26174.17883804  .00000679  00000-0  63061-3 0  9992
2 39968  83.1461 342.1014 0077202  31.4028 329.1706 13.79434594 62691
Epoch: 2026-06-23T04:17Z
TLE epoch observation values (Epoch: 2026-06-23T04:17:31.606Z)
Latitude
-0.00005°
Longitude
6.36558°
Altitude
920.224 km
Speed
7.416 km/s
True Right ascension
22h 48m 24s
True Declination
0° 00' 00"
Sunlit
Object was in daylight at epoch
Visualization orbit readout
Latitude
Unknown
Longitude
Unknown
Altitude
Unknown
Speed
Unknown
Apparent Right ascension
Unknown
Apparent Declination
Unknown
Sunlit
N/A
Visualization observer readout
Local Sidereal Time
17:55:36
Azimuth
Unknown
Elevation
Unknown
Doppler factor
Unknown
Orbital elements
Apogee altitude
1,019.703 km
Perigee altitude
906.352 km
Semi-major axis
7,341.165 km
Eccentricity
0.00772
Inclination
83.1461°
RAAN
342.1014°
Arg. of periapsis
31.4028°
True anomaly
328.71344°
Mean anomaly
329.1706°
Eccentric anomaly
328.9424°
Mean motion
3.45061 °/min
Orbital period
104.33 mins
BSTAR
0.00063061
Loading maneuver chart data...
Computing Atmospheric mass density...

Documentation

Showing up to 5 results
|